Wind_Speed
13 12 12 13 13 14 14 14 12 11 10 10 10 10 11 11 11 12 11 11 11 13 13 14 15 16 17 17 17 17 18 19 20 20 20 20 21 21 21 20 20 20 19 19 19 19 18 18 18 18 17 17 17 17 18 18 18 18 19 19 19 18 18 18 18 18 17 18 18 19 20 20 21 21 21 21 21 21 20 20 20 20 20 20 20
15 15 15 14 15 15 16 17 16 14 12 11 10 9 9 9 10 10 10 10 9 10 10 11 12 13 14 15 15 15 15 16 16 17 17 17 18 19 19 19 20 19 19 19 18 18 18 18 17 17 17 16 16 17 17 18 18 18 18 19 18 18 17 17 17 17 17 16 17 18 18 19 20 20 20 20 21 20 20 20 20 20 20 20 20
19 18 18 17 16 16 16 18 18 18 16 14 12 11 10 9 9 9 8 8 8 8 8 8 9 10 10 11 12 12 13 13 14 14 15 15 15 16 17 17 17 18 18 18 18 17 17 17 17 17 17 16 16 16 17 17 17 17 17 18 18 17 17 17 16 16 16 16 16 17 17 17 18 18 19 20 20 20 20 19 19 19 19 19 20
22 21 20 20 19 18 18 18 19 20 20 18 16 14 13 12 11 11 9 8 8 8 7 6 6 7 8 8 8 9 10 11 11 12 13 14 15 15 16 16 16 16 16 17 17 17 16 16 16 17 17 17 16 16 16 16 16 16 16 16 16 16 16 16 16 15 16 16 16 16 16 17 17 18 18 19 19 19 19 19 19 19 19 20 20
26 24 23 22 21 21 20 20 20 21 22 22 20 18 17 15 14 13 12 11 8 8 8 6 6 6 6 7 7 7 7 8 9 10 10 12 13 14 15 15 15 15 16 16 16 16 15 15 15 15 15 16 16 15 15 15 15 15 15 15 15 15 15 15 15 14 15 15 15 16 16 16 17 17 18 18 18 19 19 19 19 19 20 20 21
29 28 26 25 24 23 23 23 22 22 24 25 24 22 20 19 18 16 16 15 12 10 9 8 7 6 6 6 6 6 6 6 7 8 9 10 11 12 13 13 14 15 16 16 15 15 15 15 15 14 14 14 14 15 15 15 15 15 15 15 15 14 14 13 13 13 13 14 14 14 15 15 16 16 17 18 18 18 19 19 19 20 20 21 21
32 31 30 28 27 26 26 25 25 25 26 27 27 26 24 23 22 20 18 17 16 13 11 11 10 8 7 7 7 7 6 5 6 7 8 9 9 10 11 12 13 14 15 16 17 16 15 14 14 13 13 12 12 13 14 14 14 14 14 14 14 13 13 12 12 12 12 12 12 12 13 14 14 14 15 17 17 18 19 19 19 20 20 21 21
34 34 33 32 30 29 28 28 28 28 28 29 30 29 28 27 26 24 22 19 18 16 14 13 13 11 10 9 10 9 8 6 6 5 6 7 8 9 10 10 11 13 14 15 16 17 17 15 13 12 11 11 11 11 12 12 13 13 13 13 13 12 11 10 10 10 10 10 10 11 11 12 13 13 14 15 16 17 17 18 18 19 19 20 20
36 36 36 35 33 32 31 31 31 31 31 32 32 32 31 31 30 28 25 22 21 19 17 16 15 14 13 13 13 13 11 10 9 8 7 8 9 9 9 9 10 11 13 14 15 15 16 16 14 13 12 11 10 10 10 11 11 12 12 12 11 11 10 9 8 7 7 7 7 8 9 10 11 11 12 13 13 14 15 15 16 16 17 17 18
38 38 38 37 36 35 35 35 35 35 35 35 35 35 34 33 33 31 28 25 24 22 20 19 18 18 17 17 17 16 15 15 14 13 10 10 11 11 10 10 10 10 11 13 14 14 15 15 16 15 14 12 11 10 10 11 11 11 11 11 10 9 8 8 7 6 5 4 4 5 6 6 7 8 9 10 11 11 12 13 13 13 13 13 14
39 39 39 39 40 40 39 39 39 38 37 37 36 37 36 35 35 33 30 27 25 24 23 22 21 21 21 22 21 18 17 17 17 17 15 14 14 14 13 12 12 12 12 13 15 15 15 16 16 16 15 14 14 12 11 11 10 10 10 10 10 9 8 7 6 5 5 3 1 1 3 3 4 4 6 7 7 8 8 9 10 10 10 10 10
42 42 42 42 43 44 44 43 42 41 40 38 37 38 38 37 37 35 31 28 25 25 25 25 24 24 25 26 25 20 17 17 18 18 18 16 16 15 15 15 15 15 14 16 17 17 17 17 18 18 17 16 15 14 13 13 11 10 10 10 10 9 9 7 7 7 6 5 4 3 2 1 1 1 2 2 3 3 4 5 6 6 6 6 6
47 47 46 46 46 46 46 46 44 42 41 40 39 39 38 36 36 37 35 31 28 27 26 25 24 25 27 29 29 25 20 19 19 19 19 19 18 17 16 16 16 16 17 19 19 18 18 18 19 19 19 18 16 14 14 14 14 13 12 11 11 11 10 9 7 7 8 8 8 7 6 5 5 5 4 3 2 2 1 2 3 4 4 4 4
49 50 48 47 47 47 47 47 46 44 44 43 42 41 38 35 33 33 32 31 29 28 27 26 26 27 29 30 31 29 26 23 22 22 21 21 20 19 18 17 17 18 21 21 20 19 20 20 20 20 21 21 19 18 16 15 16 16 15 13 12 13 13 11 9 9 9 9 10 10 10 10 10 9 9 8 7 7 7 7 7 7 6 6 6
48 48 47 45 45 45 46 46 46 45 44 42 40 39 39 37 34 33 33 32 31 30 29 29 30 30 31 33 34 33 29 26 25 24 24 23 21 20 20 19 19 21 23 23 21 21 22 22 22 22 22 22 22 21 20 18 17 17 16 15 13 14 14 13 12 11 11 10 10 11 13 14 14 14 13 13 12 11 12 12 12 12 11 10 10
50 48 48 48 48 47 46 46 45 44 43 41 40 40 40 40 37 36 37 37 36 34 33 32 33 33 33 33 34 34 31 29 29 28 28 27 26 25 24 24 24 25 25 24 23 23 23 24 24 23 23 23 23 23 23 22 21 19 18 16 14 15 15 14 13 13 12 12 12 13 14 15 16 17 17 17 16 16 16 17 17 16 16 16 15
52 52 50 51 53 53 52 51 52 51 50 49 47 45 44 43 41 40 42 42 41 39 37 36 36 36 35 33 33 34 34 33 33 33 32 31 31 31 31 30 29 29 29 28 26 25 25 25 25 24 24 24 24 24 26 26 25 23 21 18 16 16 16 15 14 14 13 13 13 14 15 16 17 18 19 19 19 19 20 20 20 21 21 20 20
52 54 52 52 55 56 56 57 56 56 55 54 53 51 49 47 46 45 46 49 47 44 43 42 41 40 40 38 37 37 38 38 37 36 35 36 36 36 37 37 36 34 33 33 32 31 29 28 27 26 25 25 26 26 28 29 29 28 25 21 19 18 17 16 15 14 14 14 15 15 16 16 17 18 19 20 21 21 22 22 22 22 23 24 24
52 51 52 55 56 55 56 60 60 59 57 54 53 52 51 50 50 49 50 52 51 48 47 47 46 44 43 43 42 42 42 42 42 41 41 42 42 42 42 42 41 40 38 36 36 36 35 33 31 29 26 26 28 31 32 33 33 32 30 27 25 23 21 18 17 16 16 16 17 17 18 18 18 19 19 20 21 22 23 24 23 23 23 24 25
58 51 50 54 55 52 53 58 61 62 61 58 54 52 50 49 51 53 53 52 51 51 50 50 49 48 47 46 46 46 47 48 48 48 47 47 46 45 45 44 44 43 42 41 40 39 38 35 34 32 29 28 29 33 36 38 38 37 36 34 32 30 27 24 22 21 20 20 20 20 21 21 22 22 21 21 21 22 22 23 24 25 25 24 24
67 62 56 55 53 49 49 53 56 60 61 59 57 57 57 57 56 57 57 55 52 52 53 54 53 53 52 52 51 51 51 51 51 51 51 51 51 50 49 48 46 46 46 46 44 43 40 37 36 35 33 32 32 34 36 39 41 42 41 40 38 36 34 32 30 28 26 24 23 24 24 25 25 25 25 25 25 24 24 24 25 26 26 25 22
72 71 68 64 59 57 55 54 54 55 56 57 56 56 61 63 61 60 60 59 58 57 57 58 60 60 61 59 58 57 57 54 53 52 53 55 55 54 52 51 49 48 48 48 47 47 45 42 39 38 38 37 37 37 38 40 42 44 45 45 43 41 39 38 37 36 33 31 29 29 28 29 29 29 30 30 30 30 29 29 28 28 27 26 26
74 76 75 74 72 69 67 65 60 54 52 55 55 53 54 58 59 61 61 59 57 55 53 54 57 61 65 64 62 61 61 59 58 56 56 57 58 57 57 56 54 51 50 49 48 48 49 48 45 43 42 43 43 43 43 43 43 45 47 48 48 46 44 44 44 42 41 38 36 35 34 33 33 33 33 34 35 35 35 34 34 34 34 34 34
76 78 78 78 75 72 70 73 73 65 57 56 55 52 51 50 51 55 58 58 57 57 56 55 56 58 62 62 59 56 55 56 57 57 56 57 59 60 60 60 58 54 53 52 52 51 52 52 51 49 48 47 47 47 48 48 47 48 48 50 52 51 50 49 49 48 48 46 44 42 40 39 38 37 37 38 38 39 39 39 39 39 40 40 41
78 80 80 78 75 73 72 76 79 77 71 66 64 63 63 61 57 57 59 59 60 62 65 67 67 66 66 65 62 59 56 56 58 61 60 60 61 63 64 63 61 59 57 56 56 56 56 57 57 56 55 53 52 51 52 52 53 53 53 54 55 55 54 54 54 53 53 52 51 50 48 47 45 43 42 42 42 43 43 43 43 43 43 44 45
84 84 85 85 83 82 81 81 82 83 82 80 78 77 77 77 76 75 73 71 69 69 70 71 73 74 74 73 72 70 67 67 69 70 70 69 69 69 69 68 66 65 63 61 60 61 61 62 61 61 60 59 59 59 59 59 59 58 59 60 60 59 58 58 58 58 57 57 56 56 55 54 53 51 49 48 47 47 47 48 48 48 48 48 48
96 94 94 95 96 95 94 92 90 89 89 89 90 89 89 89 90 89 89 88 87 85 83 82 81 80 80 79 79 78 77 77 78 78 78 77 77 76 76 75 75 74 73 72 71 70 69 68 68 67 66 65 65 65 65 64 64 64 64 65 65 64 63 62 62 62 61 61 61 61 60 60 59 58 57 56 54 53 52 52 52 53 54 54 54
107 106 105 105 105 105 105 105 104 103 102 102 101 101 100 101 102 102 101 100 98 97 97 96 96 95 93 92 91 89 89 88 87 86 85 84 83 83 83 82 83 84 85 85 83 80 78 76 75 74 74 73 72 70 69 69 69 69 69 70 70 69 68 67 67 67 66 66 65 65 65 65 64 63 63 62 61 60 59 58 57 57 58 59 60
114 114 113 111 111 111 111 111 111 112 112 113 113 112 111 111 111 111 108 106 104 103 102 102 105 106 105 104 103 101 99 98 96 94 93 91 91 90 90 90 91 91 91 91 90 88 85 82 79 77 77 77 78 77 76 76 75 74 74 74 75 74 73 72 72 72 72 71 71 71 70 69 69 68 68 67 66 65 65 64 63 62 62 63 63
119 119 118 117 115 114 113 113 113 113 113 114 115 117 117 117 116 114 110 107 107 108 107 107 108 110 110 109 108 106 104 103 101 100 99 98 97 97 97 97 96 95 93 92 91 89 87 84 82 80 79 79 80 81 81 80 79 78 78 77 77 77 76 76 77 77 77 77 77 76 75 74 74 74 73 72 71 70 69 68 68 68 67 67 67
115 117 118 118 116 115 114 114 114 112 111 110 111 112 114 114 113 112 111 109 109 110 111 110 111 111 112 111 110 108 106 105 104 104 104 103 103 102 101 100 98 96 94 92 91 89 87 84 82 81 81 82 83 84 85 84 83 82 81 80 80 79 78 79 79 80 80 81 81 81 80 80 79 79 78 78 77 77 76 74 74 73 72 72 72
110 112 113 114 115 115 115 115 115 114 113 112 111 111 111 110 109 109 109 108 108 109 111 112 112 113 113 112 112 110 108 107 106 106 106 106 106 105 104 103 101 99 98 96 93 92 90 88 85 84 84 85 85 85 86 86 86 85 84 83 82 81 81 81 81 81 82 83 84 84 84 84 84 83 83 83 83 82 82 81 80 79 78 78 78
111 111 111 112 112 113 113 114 115 115 115 115 114 113 112 111 111 110 110 110 109 108 109 110 111 112 112 112 112 111 110 109 109 108 108 107 107 107 106 106 104 103 102 100 98 96 94 93 91 89 88 88 87 86 85 84 84 84 84 83 82 81 82 82 82 82 83 83 84 85 86 86 87 87 87 87 87 87 86 86 85 85 85 85 85
115 113 112 111 111 111 112 113 113 114 114 114 115 115 114 114 113 113 113 112 111 111 110 110 110 111 111 111 111 111 110 110 109 109 109 108 108 108 107 107 106 105 104 102 101 99 98 97 95 94 92 91 91 90 89 87 86 84 83 83 82 82 82 83 83 84 84 85 85 86 87 88 89 90 90 90 90 90 90 90 90 91 91 91 91
123 121 119 116 114 112 112 112 112 113 114 115 115 115 114 114 113 112 112 112 111 111 110 110 110 110 111 111 110 110 109 109 108 108 107 106 106 106 106 105 104 104 103 102 101 100 99 98 97 97 96 95 94 94 94 94 93 90 88 86 85 84 84 85 86 87 87 87 87 87 87 88 89 90 92 92 92 92 93 93 94 95 95 95 95
126 126 125 123 121 118 116 114 114 114 114 114 114 114 114 113 112 111 110 110 110 110 110 110 110 110 110 111 110 109 108 108 108 107 106 105 105 105 104 103 103 102 101 101 100 99 98 98 98 98 97 97 97 97 97 97 97 96 95 93 92 91 90 90 90 91 91 91 90 90 90 90 90 91 92 92 93 93 93 93 94 94 95 95 96
126 126 125 124 123 122 120 119 117 116 115 115 114 113 112 111 110 109 109 110 111 111 111 111 111 111 112 112 112 111 110 108 108 107 107 106 105 105 104 104 103 103 102 101 100 99 99 99 99 98 98 97 98 98 98 99 99 99 98 97 97 97 97 97 97 97 97 96 94 94 93 93 93 94 95 96 96 97 97 97 96 96 96 97 97
126 127 126 126 124 123 122 121 119 119 119 119 117 116 114 112 111 109 109 109 109 110 111 111 111 111 112 112 112 111 110 109 109 108 107 107 106 106 105 104 104 104 104 103 102 102 101 101 100 100 99 99 99 99 99 99 100 100 100 100 100 101 102 103 103 104 103 103 102 101 100 99 99 99 99 100 101 102 102 102 102 101 101 101 101
127 127 127 127 127 126 125 124 123 122 122 122 121 120 118 117 115 114 112 111 110 109 109 109 109 110 111 111 110 109 108 108 107 106 106 106 106 106 105 104 104 104 104 104 104 103 103 102 102 101 101 102 102 101 101 101 101 101 102 102 103 104 105 106 107 108 108 108 108 108 108 108 107 108 108 108 108 108 107 107 107 107 107 107 107
129 128 127 127 128 127 127 125 124 123 123 122 122 121 119 118 117 116 116 114 112 110 110 110 109 110 110 109 108 108 108 107 106 105 104 104 104 104 104 104 104 104 104 105 104 104 103 102 102 103 103 103 104 104 103 103 103 104 104 104 105 106 107 108 109 109 110 111 112 113 114 114 114 115 115 115 115 115 115 115 115 115 114 114 114
130 129 128 128 128 128 128 128 127 126 125 124 123 122 121 120 118 117 117 116 115 113 112 111 111 111 111 110 109 108 108 108 107 106 105 104 103 101 101 101 102 103 104 103 103 102 102 102 102 103 103 104 104 104 105 105 105 106 106 107 108 109 109 110 110 111 111 112 113 115 116 117 119 120 120 121 122 122 123 123 123 123 122 122 121
132 131 130 129 130 130 131 131 131 130 129 128 126 125 124 122 121 120 120 120 119 117 116 115 114 113 112 111 110 110 111 110 109 108 107 106 105 103 102 101 101 101 100 101 101 101 101 102 102 103 104 104 104 104 105 106 106 107 107 108 109 110 111 112 112 113 113 114 115 116 117 118 119 120 122 123 125 126 127 128 129 130 130 130 130
134 133 132 130 130 130 130 131 131 132 131 130 129 128 127 126 125 124 124 123 122 121 119 119 118 117 115 113 112 112 111 111 110 110 110 109 108 106 106 105 104 103 102 102 102 102 103 103 104 105 106 106 106 106 106 106 107 107 108 109 110 110 111 112 112 114 115 116 117 118 118 119 120 121 122 123 125 126 128 129 131 132 134 135 136
132 133 132 131 130 128 128 128 129 131 131 131 130 129 129 128 128 127 126 125 124 123 122 121 120 118 117 116 115 113 112 110 110 110 110 110 109 109 108 108 108 107 107 106 107 106 106 106 106 106 107 107 107 107 107 108 109 110 111 111 111 112 112 113 114 115 116 117 118 119 119 120 121 122 123 124 125 126 128 129 130 132 133 135 136
130 129 130 130 130 128 127 126 127 127 128 129 129 130 130 129 129 128 127 126 125 124 124 123 122 121 120 118 117 115 114 112 111 110 110 111 111 111 112 112 111 110 109 109 109 109 108 108 109 109 110 110 110 110 111 112 113 114 114 115 115 115 116 116 117 117 118 119 120 121 122 122 123 124 124 125 126 127 128 129 130 132 133 134 135
127 127 127 127 127 127 126 125 124 123 123 122 123 125 126 127 127 127 126 126 125 124 124 124 124 124 122 121 120 119 118 116 115 113 113 112 112 112 111 110 109 109 109 109 109 110 110 111 111 112 113 113 114 115 115 116 117 117 118 118 118 118 118 119 120 120 121 122 123 123 124 125 126 127 127 128 129 129 130 131 132 133 134 135 136
122 123 124 125 126 126 126 124 121 120 118 118 117 118 119 120 121 122 123 124 124 125 124 124 124 123 123 123 123 122 122 121 119 118 116 115 114 112 111 111 112 113 113 113 113 113 113 113 112 112 113 114 114 115 115 116 116 117 117 118 118 118 119 120 120 121 122 123 124 125 125 127 128 129 129 130 131 132 133 134 135 135 136 137 138
117 117 119 120 123 125 126 125 121 118 116 115 115 115 115 115 116 117 118 120 122 123 123 122 122 122 122 123 123 123 122 122 121 120 119 117 117 116 117 117 118 119 118 116 116 115 115 114 114 113 113 114 114 114 114 114 115 115 116 117 117 118 118 119 120 120 121 122 122 123 124 125 127 128 129 130 131 132 133 134 135 136 137 138 139
117 115 115 116 118 120 123 125 124 123 120 118 116 115 115 114 114 114 115 116 117 118 118 119 120 121 121 121 121 121 120 120 119 119 119 119 119 119 120 120 119 118 117 116 115 115 115 115 114 115 115 114 114 114 114 114 115 115 115 116 116 117 117 118 118 119 119 120 121 122 123 124 124 125 127 128 128 129 130 131 132 134 135 136 137
117 116 115 114 115 116 117 120 123 125 126 126 125 123 122 120 118 116 115 114 114 114 115 116 117 118 119 119 119 120 120 120 120 120 119 119 119 118 118 118 117 116 115 115 115 114 114 114 114 114 114 114 114 114 114 114 114 115 115 115 116 116 116 116 116 117 117 117 118 118 119 119 120 121 122 122 123 124 125 126 127 129 130 131 132
111 112 112 113 113 114 115 116 118 120 121 124 126 127 127 126 125 122 120 118 116 115 115 116 117 118 118 118 119 119 119 120 119 118 118 117 117 116 116 116 115 115 115 115 115 115 115 114 114 114 114 114 114 114 114 115 115 115 115 115 115 115 115 115 115 114 114 114 114 114 115 115 116 116 117 118 119 120 121 122 124 125 126 128 129
Wind_Direction
268 272 279 290 299 306 310 314 318 325 335 349 360 8 13 14 16 20 24 29 33 40 46 51 51 52 55 55 56 56 56 55 53 52 52 52 51 49 48 47 48 49 50 50 51 51 51 50 49 47 46 46 45 45 45 46 46 46 46 45 45 46 45 44 44 43 40 37 35 34 34 34 34 35 36 38 42 46 50 53 57 60 62 64 66
263 267 270 277 288 298 305 306 307 308 311 319 331 342 349 353 358 5 13 17 20 25 32 40 43 47 51 53 53 53 53 53 51 48 47 47 46 45 44 42 42 41 42 43 44 46 48 49 49 46 42 40 37 37 37 39 40 41 42 43 43 44 45 46 47 47 46 43 41 40 38 37 36 37 38 40 44 49 54 58 60 63 66 69 71
259 262 266 270 277 286 296 302 303 302 300 302 307 314 322 329 333 340 352 1 5 9 15 23 30 35 43 48 50 50 50 50 50 46 42 39 36 35 34 33 33 33 34 36 38 41 43 45 47 47 45 41 37 33 30 30 32 33 35 37 38 39 40 42 44 48 48 47 46 45 43 42 42 41 42 44 47 52 57 61 63 65 69 72 76
254 258 262 266 270 276 284 294 299 298 295 294 295 297 301 307 312 316 322 333 345 353 358 4 9 16 27 34 37 40 41 44 45 43 40 36 31 29 29 27 24 22 24 27 30 34 37 41 43 44 45 44 39 35 30 26 26 26 29 33 37 39 40 40 41 44 45 44 44 47 47 47 48 47 48 50 53 57 62 66 69 71 74 77 81
250 253 258 262 265 269 275 282 290 294 294 290 287 287 290 293 297 301 305 308 318 330 337 343 349 351 3 12 15 19 23 28 31 30 31 30 27 26 26 24 19 15 14 17 18 22 26 30 33 36 38 38 37 35 32 27 23 20 21 27 32 35 39 42 42 43 44 42 40 44 47 48 49 51 53 57 60 63 67 71 74 77 80 83 87
247 250 253 258 262 264 268 274 281 286 289 288 283 281 283 286 287 289 292 294 299 309 318 324 330 334 338 344 347 350 359 10 15 13 13 17 19 18 17 15 13 10 9 9 10 12 13 15 17 21 26 29 31 34 34 29 24 20 18 20 23 27 31 39 43 45 47 47 43 43 46 47 49 52 56 61 65 68 71 73 77 81 85 89 92
244 247 250 255 259 262 264 268 273 278 281 283 281 277 276 279 282 282 281 284 287 292 302 308 314 320 320 317 316 321 331 344 351 354 356 2 8 8 5 5 5 4 3 3 4 6 7 6 6 10 19 24 26 30 32 31 27 23 19 17 19 20 21 27 37 41 46 51 50 48 49 50 51 53 58 63 66 70 74 77 80 85 89 93 97
242 244 248 251 256 260 262 264 267 271 273 275 275 272 270 272 276 276 274 275 277 280 285 292 300 304 304 300 300 303 309 314 318 322 328 337 347 353 351 352 354 354 356 355 356 357 359 1 360 360 6 12 18 23 25 26 27 26 22 19 17 16 15 17 27 33 39 49 53 53 55 56 57 58 60 64 67 70 75 79 84 89 94 99 103
244 244 246 250 253 256 259 260 261 263 265 267 267 266 265 266 269 270 269 269 272 273 273 277 286 292 292 292 293 295 298 298 297 299 306 311 320 330 334 334 338 342 344 345 345 345 347 349 351 355 356 356 1 11 14 15 21 24 24 20 15 12 9 7 12 24 30 41 52 57 60 62 63 64 65 66 70 74 78 83 89 94 100 105 110
246 247 249 251 253 254 255 256 257 260 262 265 267 267 265 265 267 269 271 272 273 274 272 270 273 281 285 285 284 287 290 290 292 297 302 303 306 313 317 317 319 322 326 329 329 328 330 334 340 347 350 345 342 349 359 4 8 11 14 15 10 4 359 355 356 4 12 25 51 66 70 70 70 69 70 72 75 77 83 88 93 99 105 112 119
248 251 252 251 251 252 252 252 253 256 260 263 266 268 267 266 266 268 271 272 273 274 273 269 268 271 276 278 277 279 282 286 291 296 300 303 305 308 309 307 306 307 309 310 308 308 314 321 326 331 334 334 335 337 340 349 355 357 357 357 359 356 348 341 337 333 333 336 356 80 85 83 86 82 78 80 80 82 87 92 97 105 113 121 129
253 251 249 247 247 248 249 250 251 252 255 258 262 264 264 263 263 264 265 267 268 269 270 270 268 267 271 274 276 278 282 286 290 293 297 299 301 303 303 300 299 299 298 296 294 298 306 311 313 316 318 321 327 330 330 332 336 339 339 339 342 344 340 333 324 311 304 300 293 270 237 218 192 162 122 102 93 90 95 105 117 127 133 141 147
247 243 240 240 242 244 246 248 250 251 253 254 256 260 263 263 263 263 263 263 263 265 270 272 268 265 267 271 274 277 281 284 286 290 291 292 293 294 292 291 292 291 288 286 288 293 299 302 303 306 309 311 314 316 319 322 321 320 323 325 326 326 329 331 325 308 294 288 285 278 265 255 251 243 234 230 229 233 228 202 187 187 188 189 194
237 236 237 239 241 243 245 247 249 249 252 254 254 257 259 261 261 261 262 263 263 266 272 274 270 267 267 267 269 272 274 277 282 286 288 289 290 292 291 290 286 281 280 282 284 287 289 291 293 296 300 304 306 307 309 310 308 308 310 312 312 312 318 327 330 318 304 293 284 279 274 267 261 258 255 251 247 248 255 256 247 239 240 244 245
236 235 236 239 241 243 243 246 249 249 250 253 254 254 255 255 256 256 258 262 264 264 268 270 270 269 269 268 267 266 267 271 277 283 285 285 286 289 291 292 288 283 282 283 283 282 283 284 286 289 292 297 300 302 302 300 298 300 304 306 306 303 305 312 317 316 314 309 298 287 280 275 269 266 263 260 257 255 257 261 259 257 258 262 267
236 236 236 237 238 240 241 243 247 248 249 250 251 253 254 256 256 255 258 261 263 261 261 262 263 264 264 263 262 260 261 265 271 277 281 282 281 283 284 285 285 284 285 284 281 279 280 281 281 283 285 290 295 298 298 295 293 293 296 300 301 297 296 298 302 304 308 309 303 298 293 287 281 275 270 268 265 262 260 261 262 263 264 265 270
236 237 241 242 241 241 242 243 246 249 249 250 251 252 254 256 256 257 259 260 260 259 258 257 257 258 260 259 256 255 257 262 267 271 275 277 278 279 278 277 276 277 278 278 277 275 274 276 277 279 280 283 287 291 292 292 291 289 290 291 291 289 288 290 292 298 303 302 299 297 296 294 290 286 282 279 275 271 267 264 263 264 265 266 268
238 241 246 248 245 243 244 245 245 247 248 250 251 251 252 254 254 257 259 259 257 257 257 257 256 255 257 258 257 256 257 260 263 266 268 271 274 276 275 274 274 273 272 272 274 273 272 273 274 277 279 282 283 285 286 287 288 287 286 285 283 281 280 282 284 289 295 299 299 296 294 291 289 289 289 288 284 280 276 272 267 265 266 267 268
235 241 247 247 245 245 247 246 245 245 247 249 251 252 253 253 252 254 257 258 257 256 255 256 257 257 257 258 259 260 259 259 261 262 266 271 274 274 272 271 272 272 271 269 269 270 271 272 273 274 277 282 286 286 284 285 285 286 284 283 281 278 276 276 279 280 283 285 290 293 294 291 288 287 290 291 289 287 284 280 276 272 269 268 268
226 230 238 243 244 245 248 248 247 246 246 247 249 249 250 252 253 253 254 256 257 257 256 256 257 257 258 259 260 261 262 262 262 263 267 273 276 273 271 270 270 270 271 269 267 266 266 267 268 270 271 276 283 286 285 284 285 285 284 282 281 280 277 275 274 275 275 277 278 282 285 288 288 288 289 289 289 288 287 285 283 281 280 276 268
223 223 228 234 238 241 245 246 246 246 246 245 247 247 247 250 253 254 253 253 254 255 255 255 255 257 259 259 259 260 262 263 263 264 266 270 273 273 271 269 269 269 270 270 268 266 265 264 263 264 266 268 273 279 282 283 283 283 283 282 281 280 279 276 274 272 271 272 272 272 274 278 281 283 285 286 286 285 284 284 283 282 283 281 270
224 224 224 226 232 238 243 244 242 243 244 242 243 247 249 250 252 252 252 252 253 255 257 258 258 258 258 258 258 261 262 262 262 263 265 268 270 271 269 268 269 269 268 267 268 267 267 266 265 265 267 268 271 276 279 280 279 280 280 281 280 278 277 276 275 273 271 269 268 268 268 271 273 275 278 280 282 283 282 281 281 279 279 278 275
226 226 225 228 233 239 244 243 240 238 239 237 238 243 248 251 251 250 249 250 251 253 256 257 256 256 257 257 258 260 261 261 261 262 265 267 268 268 267 267 268 268 265 265 268 269 269 269 269 269 268 270 273 277 279 279 277 277 277 277 277 277 276 276 275 275 273 271 269 267 267 267 268 268 270 273 277 279 280 279 279 278 276 276 277
227 226 227 229 234 239 241 240 237 235 234 234 234 235 237 241 244 245 245 247 248 248 248 249 249 251 254 256 255 255 256 259 261 263 265 266 267 267 266 265 267 267 266 267 269 270 270 271 272 272 271 272 274 277 280 280 279 278 276 275 275 275 275 275 274 274 274 273 270 268 266 266 265 264 265 267 269 272 275 276 276 277 277 277 277
226 227 228 231 235 238 238 237 236 236 236 237 237 237 235 236 239 242 243 244 246 247 248 249 250 251 252 252 252 252 253 257 262 264 266 266 267 267 267 266 266 267 267 268 269 270 271 271 271 272 273 274 275 277 278 279 280 279 277 275 274 273 273 273 273 273 272 272 272 270 268 267 266 263 262 263 265 267 270 271 274 275 276 278 278
228 229 231 234 238 241 241 239 238 239 240 241 243 243 243 243 246 248 250 249 248 247 247 249 250 252 252 252 252 253 254 257 261 263 265 266 267 268 268 267 267 267 268 269 270 271 271 271 270 271 271 272 274 275 277 278 279 279 278 277 275 273 272 272 272 273 273 272 272 272 271 270 269 266 265 264 265 266 267 267 269 272 274 276 277
235 236 237 240 243 246 246 244 243 242 243 245 246 247 248 249 251 253 255 256 256 254 253 252 252 252 252 252 253 254 256 258 261 263 264 265 266 267 268 267 268 269 270 271 272 272 272 271 271 271 270 270 271 273 274 276 277 278 278 277 275 273 273 272 271 271 272 272 273 273 272 272 271 270 268 267 266 266 265 265 266 269 272 274 276
239 240 242 244 246 248 250 250 249 248 247 247 248 250 251 252 254 256 257 258 258 258 257 257 257 256 255 255 256 257 259 260 261 262 263 264 265 266 267 268 269 270 272 273 274 273 273 272 271 270 270 269 270 271 272 274 276 277 277 276 275 274 274 272 271 270 271 271 272 272 272 272 272 272 271 270 268 267 266 265 265 266 268 271 273
241 242 243 245 247 249 250 251 252 251 251 250 250 250 252 254 256 257 259 259 258 257 257 257 258 258 258 257 258 259 260 261 262 263 263 264 264 265 266 267 269 270 272 273 274 274 273 272 271 269 268 267 268 269 271 273 274 276 276 276 275 274 273 272 271 270 270 270 271 271 272 272 272 272 271 270 270 269 268 267 266 266 266 266 268
242 243 244 245 246 248 249 250 250 251 251 251 251 251 252 254 255 257 258 258 259 258 257 256 257 258 258 259 259 260 260 261 262 263 264 264 264 265 266 267 269 270 271 271 272 273 273 272 271 269 267 266 266 267 270 272 274 275 276 275 274 273 273 272 271 271 270 270 270 271 271 272 272 272 272 271 270 270 269 269 269 268 267 266 266
244 244 244 245 246 247 247 248 249 249 250 251 252 253 253 254 255 256 256 257 257 258 258 257 257 258 259 260 261 261 261 261 261 262 263 263 264 265 267 268 269 270 270 271 271 271 271 270 269 269 268 268 267 267 268 270 272 274 275 275 274 272 272 271 271 271 270 270 270 270 270 271 271 272 272 272 271 271 270 270 270 270 270 269 268
244 245 245 246 247 247 248 248 249 249 250 251 253 253 254 254 255 255 255 256 256 257 258 258 258 258 259 260 260 261 261 261 261 261 261 262 263 264 266 267 269 270 270 270 270 270 269 269 268 267 267 268 268 269 270 271 272 274 275 275 274 273 272 272 271 271 270 270 270 270 270 270 270 271 271 272 272 272 271 271 272 272 272 271 270
244 245 245 246 247 248 249 250 250 251 252 252 253 252 253 254 254 255 255 255 256 256 257 258 258 259 259 260 260 260 261 261 261 261 261 262 262 263 264 266 267 268 268 269 269 269 269 269 268 267 267 266 266 267 269 271 273 274 275 274 274 273 273 273 272 272 271 270 270 270 270 270 270 270 271 271 271 272 272 272 272 273 273 272 272
244 244 245 247 248 249 250 251 252 253 253 253 253 253 253 254 254 255 255 255 256 256 257 257 258 259 260 260 260 260 261 261 261 261 261 262 262 263 264 264 265 266 267 267 268 268 268 268 268 268 267 266 265 265 265 267 268 270 271 272 272 272 272 272 272 272 271 271 270 270 270 271 271 271 271 271 271 271 272 272 272 273 273 273 273
245 246 246 247 248 249 250 251 252 253 253 254 254 254 254 255 255 255 255 256 256 256 257 257 258 258 259 260 260 261 261 261 261 262 262 262 263 263 263 264 264 265 265 266 266 267 267 267 267 267 267 266 266 266 265 265 266 266 266 266 267 268 269 270 271 271 271 271 270 271 271 271 271 271 272 272 272 272 272 272 272 272 272 273 273
248 248 248 248 249 249 250 251 251 252 253 254 254 255 255 255 255 256 256 256 256 256 257 257 258 258 259 259 260 260 261 261 261 261 262 262 263 263 263 264 264 264 265 265 265 266 266 267 267 267 267 267 267 267 267 266 266 266 265 265 264 264 265 266 267 268 269 269 270 270 270 270 270 270 271 271 271 271 271 271 271 271 271 272 272
249 249 250 250 250 250 250 250 251 252 252 253 254 254 255 255 256 256 257 256 256 256 257 257 258 259 259 259 260 260 261 261 262 262 262 262 263 263 263 264 264 264 265 265 265 265 266 266 266 267 267 267 268 268 268 267 267 267 266 266 265 264 263 263 263 264 265 265 266 266 267 267 268 268 269 269 269 269 270 270 270 270 270 270 270
249 250 251 251 251 251 251 251 251 252 252 253 253 254 254 255 256 257 257 257 257 257 258 258 259 259 259 260 260 261 261 262 262 262 263 263 263 263 263 263 264 264 264 265 265 265 265 265 266 267 267 267 267 268 268 268 268 268 267 266 265 264 263 263 263 263 264 263 263 263 263 264 264 265 265 266 266 267 267 267 268 268 268 267 267
248 250 251 251 252 252 252 252 253 253 253 253 254 254 255 256 256 257 257 257 258 258 258 259 259 259 260 260 261 261 262 262 262 263 263 263 263 263 263 264 264 264 264 264 264 264 265 265 266 266 267 267 267 267 267 267 268 268 267 267 266 265 264 264 264 264 264 264 264 264 263 263 263 263 263 264 264 264 265 265 265 266 266 266 265
248 249 250 251 252 252 252 252 253 253 253 254 254 255 255 256 256 257 257 257 257 258 259 259 259 259 260 261 261 261 261 261 262 263 263 264 264 264 264 264 264 264 264 264 265 265 266 266 266 266 266 266 267 267 267 267 267 267 267 267 267 266 266 266 265 265 265 265 265 264 264 264 264 264 264 264 264 264 265 265 265 265 265 265 265
248 248 249 250 251 252 253 253 253 253 253 254 254 255 256 256 257 257 257 257 257 258 259 259 259 260 261 261 261 261 261 261 262 262 263 264 264 265 265 265 265 265 265 265 266 266 267 267 267 267 267 267 267 267 267 267 267 267 267 267 267 267 267 267 266 266 266 266 266 265 265 265 264 264 264 265 265 265 265 265 265 265 265 265 265
247 248 248 249 250 251 253 253 254 254 254 254 254 255 255 256 256 256 257 257 258 258 258 259 259 260 261 261 261 262 262 262 262 262 263 263 264 264 265 265 265 266 266 267 267 268 268 268 268 268 268 268 267 267 268 268 268 268 268 268 268 268 268 268 268 268 267 267 267 267 267 266 266 266 266 265 265 265 266 266 266 266 266 266 266
247 247 247 248 249 250 251 253 253 254 254 255 255 255 255 255 255 256 256 257 258 258 258 258 258 259 260 260 261 261 262 262 262 262 262 263 263 263 264 264 265 265 266 267 267 268 268 269 269 269 269 269 268 268 268 269 269 269 269 269 269 269 269 269 269 269 269 269 268 268 268 268 268 268 268 267 267 267 267 267 267 267 267 267 267
247 247 247 247 248 249 250 251 253 254 255 255 255 255 255 255 255 255 256 256 256 257 257 257 258 258 259 259 260 260 261 261 262 262 262 263 263 263 263 263 264 265 265 266 267 267 268 268 268 268 269 269 269 268 269 269 269 269 269 269 269 269 269 269 269 269 269 269 269 270 269 269 269 269 269 269 269 269 269 269 269 269 269 269 269
246 247 247 248 248 248 249 250 251 253 254 255 255 256 256 256 256 256 256 256 256 255 255 256 257 258 258 259 260 260 260 260 261 262 262 263 263 263 264 264 264 265 265 266 266 267 267 267 268 268 268 268 268 268 269 269 269 270 270 270 269 270 270 269 269 269 270 270 270 270 270 270 270 271 271 271 271 271 271 271 271 271 270 271 271
245 245 246 247 247 248 248 248 249 250 252 253 254 255 256 257 257 257 257 257 257 256 256 256 256 257 258 258 259 259 259 260 261 261 262 263 263 263 263 264 265 266 267 267 267 268 268 269 269 269 269 269 269 269 269 270 270 270 270 270 270 270 270 270 270 271 271 271 271 271 271 272 272 272 272 272 272 272 272 272 272 272 272 272 272
245 245 245 245 245 246 247 247 247 247 248 249 251 253 255 256 257 258 258 258 258 258 258 258 258 258 258 258 258 259 260 261 261 262 262 262 262 262 263 264 266 267 268 268 269 269 269 269 269 269 269 269 270 270 270 270 270 271 271 271 271 271 272 272 272 272 272 272 272 273 273 273 273 273 273 273 273 273 273 273 274 274 274 274 273
245 245 244 244 244 244 245 245 245 245 245 246 247 249 251 253 255 257 258 259 260 260 260 260 260 260 260 259 260 260 261 262 262 262 262 262 262 262 264 265 267 268 269 269 269 269 270 270 270 270 270 271 271 271 271 271 271 272 272 272 273 273 273 273 273 273 273 273 274 274 274 274 274 274 274 275 275 275 275 275 275 275 275 275 275
246 245 245 244 244 244 244 244 244 243 243 244 245 247 248 249 251 254 256 258 259 260 261 261 262 262 262 262 263 263 263 263 264 264 264 264 265 265 266 267 268 269 269 270 270 270 271 271 271 272 272 272 273 273 273 273 274 274 274 274 274 275 275 275 275 275 275 275 275 275 275 275 275 275 275 275 275 275 276 276 275 275 275 275 275
247 247 246 245 244 244 244 244 244 244 244 244 245 246 247 248 249 250 252 255 257 259 260 261 262 263 264 264 265 265 266 266 266 267 267 267 268 268 269 269 270 270 271 271 272 272 272 273 273 274 274 274 275 275 276 276 276 276 277 277 277 277 277 277 277 277 277 277 277 277 277 277 277 276 276 276 276 276 276 276 276 276 276 276 276
247 247 247 246 246 245 245 245 245 245 245 245 245 246 247 248 249 249 251 252 254 256 257 259 261 262 263 264 265 266 266 267 268 268 268 269 269 269 270 270 271 272 272 273 273 274 274 275 275 275 276 276 277 277 277 278 278 278 278 278 278 278 279 279 279 278 279 279 279 278 278 278 278 278 278 278 278 278 278 278 278 278 277 277 277
Height
11032 11034 11034 11034 11035 11035 11035 11035 11035 11034 11034 11033 11032 11032 11031 11031 11031 11030 11029 11029 11028 11028 11027 11027 11026 11026 11025 11024 11024 11023 11023 11022 11022 11021 11021 11020 11019 11018 11017 11017 11016 11015 11015 11014 11013 11013 11012 11011 11010 11009 11008 11008 11007 11006 11005 11004 11003 11002 11001 10999 10998 10997 10996 10995 10993 10992 10990 10988 10987 10985 10983 10981 10979 10978 10976 10975 10973 10972 10971 10970 10969 10968 10967 10966 10965
11030 11032 11033 11033 11034 11034 11034 11034 11034 11034 11034 11034 11033 11033 11032 11031 11031 11031 11030 11029 11029 11029 11028 11028 11027 11027 11026 11026 11025 11025 11024 11024 11023 11022 11022 11021 11020 11020 11019 11018 11017 11017 11016 11015 11014 11013 11013 11012 11011 11010 11010 11009 11008 11007 11006 11006 11005 11004 11003 11001 11000 10999 10998 10997 10995 10994 10992 10991 10989 10987 10985 10983 10981 10980 10978 10977 10975 10974 10973 10972 10971 10970 10969 10968 10967
11028 11029 11031 11032 11032 11033 11034 11034 11034 11034 11034 11034 11033 11033 11032 11031 11031 11031 11030 11030 11030 11029 11029 11029 11028 11028 11027 11026 11026 11025 11025 11024 11024 11023 11022 11022 11021 11021 11020 11019 11019 11018 11017 11016 11015 11015 11014 11013 11012 11011 11011 11010 11009 11009 11008 11007 11006 11005 11004 11003 11002 11001 11000 10999 10997 10996 10994 10993 10991 10989 10987 10985 10983 10982 10980 10979 10977 10976 10975 10974 10973 10972 10971 10970 10970
11025 11027 11028 11029 11030 11031 11032 11033 11033 11033 11033 11033 11033 11032 11031 11031 11030 11030 11030 11030 11030 11029 11029 11029 11028 11028 11027 11027 11026 11025 11025 11024 11024 11023 11023 11022 11022 11021 11021 11020 11019 11018 11018 11017 11016 11016 11015 11014 11013 11012 11012 11011 11010 11010 11009 11008 11007 11006 11005 11004 11003 11002 11001 11000 10999 10998 10996 10994 10993 10991 10989 10987 10986 10984 10983 10981 10980 10978 10977 10976 10975 10975 10974 10973 10973
11022 11024 11026 11027 11028 11029 11030 11031 11031 11032 11032 11032 11032 11031 11031 11030 11030 11030 11030 11030 11030 11029 11029 11029 11028 11028 11027 11027 11026 11025 11025 11024 11024 11023 11023 11022 11022 11021 11021 11020 11019 11019 11018 11018 11017 11017 11016 11015 11015 11014 11013 11012 11011 11010 11010 11009 11008 11007 11006 11005 11004 11003 11002 11001 11000 10999 10998 10996 10995 10993 10992 10990 10989 10987 10985 10984 10982 10981 10980 10979 10978 10978 10977 10976 10976
11019 11021 11023 11024 11025 11026 11027 11028 11029 11029 11029 11029 11029 11030 11029 11029 11029 11029 11029 11029 11029 11029 11029 11028 11028 11027 11027 11026 11026 11025 11024 11024 11024 11023 11023 11022 11022 11022 11021 11021 11020 11020 11019 11019 11018 11018 11017 11016 11016 11015 11014 11013 11012 11011 11010 11010 11009 11008 11008 11007 11006 11005 11004 11002 11001 11000 10999 10998 10997 10996 10994 10993 10992 10990 10989 10987 10985 10984 10983 10982 10981 10981 10980 10980 10979
11016 11017 11019 11021 11022 11023 11024 11025 11025 11026 11026 11026 11027 11027 11027 11027 11027 11028 11028 11028 11028 11028 11028 11028 11027 11027 11026 11026 11025 11024 11023 11023 11023 11022 11022 11022 11022 11021 11021 11021 11020 11020 11020 11019 11019 11018 11018 11017 11016 11016 11015 11014 11013 11013 11012 11011 11010 11009 11008 11007 11007 11006 11005 11004 11003 11002 11001 11000 10999 10998 10997 10995 10994 10993 10992 10990 10989 10987 10986 10985 10985 10984 10984 10983 10983
11012 11013 11014 11016 11018 11019 11020 11021 11021 11022 11022 11023 11023 11024 11024 11024 11024 11025 11025 11025 11025 11026 11026 11026 11026 11026 11025 11025 11024 11023 11023 11022 11022 11022 11021 11021 11021 11021 11020 11020 11020 11020 11020 11019 11019 11018 11018 11017 11017 11016 11015 11015 11014 11013 11012 11012 11011 11010 11009 11008 11007 11006 11006 11005 11004 11003 11002 11002 11000 10999 10998 10997 10996 10995 10994 10993 10992 10991 10989 10989 10988 10987 10987 10986 10986
11007 11008 11010 11012 11014 11015 11016 11016 11017 11017 11018 11018 11019 11020 11020 11020 11020 11021 11021 11022 11023 11023 11024 11024 11024 11024 11024 11023 11022 11022 11022 11021 11021 11020 11020 11020 11020 11020 11020 11020 11020 11020 11020 11020 11019 11019 11018 11017 11017 11016 11016 11015 11015 11014 11013 11012 11011 11010 11009 11008 11007 11006 11006 11005 11005 11004 11003 11003 11002 11001 11000 10999 10998 10997 10996 10995 10994 10993 10992 10991 10991 10990 10989 10989 10988
11001 11003 11005 11007 11009 11010 11011 11011 11012 11012 11013 11014 11015 11016 11017 11018 11017 11018 11019 11020 11021 11021 11022 11022 11022 11022 11021 11021 11020 11020 11020 11020 11019 11019 11019 11019 11019 11019 11019 11020 11020 11020 11019 11019 11019 11018 11018 11017 11016 11016 11016 11015 11015 11014 11013 11013 11012 11011 11010 11009 11008 11007 11006 11005 11005 11005 11004 11003 11003 11002 11001 11001 11000 10999 10998 10997 10996 10995 10994 10993 10993 10992 10991 10991 10990
10996 10998 11000 11001 11003 11003 11004 11005 11007 11008 11009 11011 11012 11013 11014 11016 11016 11016 11017 11018 11019 11019 11019 11020 11020 11020 11019 11018 11017 11017 11018 11018 11017 11018 11018 11018 11018 11018 11018 11019 11019 11019 11019 11018 11017 11017 11017 11017 11016 11016 11016 11015 11015 11014 11014 11014 11013 11012 11010 11009 11008 11007 11006 11005 11005 11005 11004 11004 11003 11003 11002 11001 11001 11000 10999 10998 10997 10997 10996 10995 10995 10994 10993 10992 10991
10991 10991 10992 10993 10995 10996 10997 10999 11001 11003 11005 11007 11008 11009 11010 11012 11013 11014 11015 11015 11016 11016 11016 11017 11018 11017 11016 11015 11014 11015 11016 11016 11016 11016 11017 11017 11017 11017 11017 11017 11017 11018 11017 11016 11015 11016 11016 11016 11016 11016 11016 11015 11015 11015 11014 11014 11013 11012 11011 11009 11008 11007 11006 11005 11005 11004 11004 11004 11004 11003 11002 11002 11001 11000 11000 10999 10999 10998 10997 10997 10996 10995 10994 10993 10992
10983 10982 10982 10985 10987 10989 10991 10993 10996 10998 11000 11002 11004 11005 11006 11008 11009 11010 11010 11011 11011 11012 11014 11015 11015 11015 11014 11013 11012 11013 11014 11014 11014 11014 11014 11014 11014 11015 11015 11015 11015 11015 11015 11014 11014 11014 11015 11015 11014 11014 11014 11014 11014 11014 11014 11013 11012 11011 11010 11009 11008 11007 11006 11005 11005 11004 11003 11003 11003 11003 11002 11002 11001 11000 11000 10999 10999 10998 10998 10997 10997 10995 10994 10993 10993
10973 10975 10977 10979 10982 10984 10986 10987 10990 10992 10994 10996 10999 11001 11003 11004 11006 11006 11006 11006 11007 11009 11011 11012 11012 11011 11011 11010 11010 11011 11011 11011 11012 11012 11012 11011 11011 11012 11012 11012 11013 11012 11011 11011 11012 11013 11013 11012 11012 11012 11012 11012 11012 11012 11012 11012 11011 11010 11010 11009 11008 11007 11005 11005 11004 11003 11003 11002 11002 11002 11001 11001 11000 11000 10999 10999 10998 10998 10997 10997 10996 10995 10995 10994 10993
10970 10973 10975 10976 10977 10979 10981 10982 10984 10987 10990 10992 10994 10996 10997 10999 11001 11002 11002 11002 11003 11005 11007 11008 11007 11008 11007 11007 11007 11008 11008 11009 11009 11009 11009 11009 11009 11009 11009 11010 11010 11009 11008 11008 11009 11010 11010 11010 11010 11010 11010 11009 11010 11010 11010 11010 11009 11009 11008 11008 11008 11007 11005 11004 11004 11003 11002 11001 11001 11001 11000 10999 10999 10998 10998 10998 10998 10997 10996 10995 10995 10995 10994 10994 10993
10970 10970 10969 10970 10972 10973 10976 10977 10978 10981 10985 10987 10988 10989 10991 10994 10996 10997 10996 10997 10998 11000 11002 11003 11003 11003 11003 11003 11003 11004 11005 11006 11006 11006 11006 11006 11006 11006 11007 11007 11006 11006 11006 11006 11006 11006 11006 11007 11007 11007 11007 11007 11007 11007 11007 11007 11007 11007 11006 11006 11006 11006 11005 11004 11003 11002 11001 11001 11000 10999 10999 10998 10997 10997 10996 10996 10996 10995 10994 10994 10993 10993 10993 10993 10992
10966 10964 10963 10964 10966 10969 10971 10971 10971 10974 10978 10980 10982 10984 10987 10989 10991 10991 10990 10990 10992 10993 10995 10997 10998 10998 10999 10999 11000 11000 11000 11001 11002 11003 11003 11003 11003 11003 11003 11003 11003 11003 11002 11003 11003 11003 11003 11003 11003 11004 11004 11004 11005 11005 11004 11004 11004 11004 11004 11004 11004 11004 11003 11002 11002 11001 11000 11000 10999 10998 10998 10997 10995 10994 10994 10995 10994 10993 10993 10992 10991 10991 10990 10990 10990
10961 10959 10958 10959 10961 10964 10965 10964 10964 10966 10969 10973 10976 10979 10982 10984 10985 10985 10983 10982 10984 10987 10988 10990 10992 10993 10994 10995 10995 10996 10996 10996 10997 10998 10998 10998 10999 10999 10999 10999 10999 10999 10999 10999 10999 10999 10999 10999 10999 11000 11001 11001 11001 11001 11001 11001 11000 11000 11000 11001 11001 11001 11001 11001 11000 10999 10999 10998 10998 10997 10996 10995 10994 10993 10993 10992 10992 10991 10990 10990 10989 10989 10988 10988 10987
10958 10957 10953 10951 10954 10959 10959 10956 10956 10959 10963 10969 10974 10976 10977 10978 10978 10978 10976 10975 10977 10980 10982 10983 10985 10987 10988 10989 10989 10990 10991 10991 10991 10992 10992 10993 10993 10994 10994 10994 10994 10994 10994 10995 10995 10995 10995 10995 10996 10996 10997 10998 10998 10998 10997 10997 10997 10997 10997 10997 10998 10998 10998 10998 10998 10997 10997 10996 10995 10995 10994 10993 10992 10991 10991 10990 10989 10989 10988 10987 10986 10986 10986 10985 10985
10951 10952 10947 10943 10947 10953 10952 10950 10949 10951 10955 10963 10969 10972 10971 10970 10970 10970 10970 10971 10972 10974 10975 10976 10978 10980 10982 10983 10983 10984 10985 10985 10985 10985 10986 10986 10986 10987 10987 10988 10989 10989 10989 10989 10989 10990 10990 10991 10992 10992 10993 10993 10994 10994 10994 10993 10993 10993 10993 10994 10994 10994 10994 10994 10994 10994 10994 10994 10993 10992 10991 10990 10989 10988 10988 10988 10987 10987 10985 10984 10983 10982 10982 10982 10982
10939 10942 10938 10935 10939 10944 10944 10944 10943 10942 10946 10953 10959 10963 10963 10962 10962 10963 10964 10965 10966 10967 10968 10970 10971 10973 10974 10976 10977 10978 10978 10979 10979 10979 10979 10980 10980 10980 10981 10982 10983 10983 10984 10983 10983 10983 10985 10986 10987 10987 10987 10988 10989 10990 10990 10990 10989 10988 10988 10989 10989 10989 10989 10989 10989 10989 10989 10990 10990 10989 10988 10987 10986 10985 10985 10985 10984 10984 10983 10982 10981 10980 10979 10979 10979
10928 10931 10929 10929 10931 10933 10935 10936 10934 10933 10938 10945 10950 10954 10955 10954 10955 10956 10956 10956 10958 10960 10962 10963 10965 10964 10965 10968 10969 10970 10972 10973 10972 10973 10973 10973 10974 10975 10975 10975 10976 10977 10977 10977 10977 10977 10978 10979 10980 10981 10981 10982 10983 10984 10985 10985 10985 10984 10983 10983 10984 10985 10985 10984 10984 10984 10984 10985 10985 10984 10984 10983 10982 10981 10981 10980 10980 10980 10980 10979 10978 10977 10976 10976 10976
10917 10920 10921 10921 10922 10923 10925 10927 10926 10926 10930 10936 10942 10947 10948 10946 10945 10946 10947 10948 10951 10955 10956 10956 10955 10954 10955 10958 10961 10962 10964 10964 10965 10968 10969 10967 10967 10968 10969 10969 10970 10970 10970 10971 10971 10971 10970 10971 10972 10973 10974 10974 10975 10977 10978 10979 10979 10979 10978 10978 10978 10979 10980 10979 10979 10979 10979 10979 10979 10979 10979 10978 10977 10976 10976 10975 10975 10975 10975 10974 10973 10972 10972 10972 10972
10906 10909 10911 10912 10913 10915 10917 10919 10919 10919 10922 10927 10933 10938 10938 10936 10934 10934 10938 10940 10944 10948 10949 10947 10946 10946 10947 10950 10952 10955 10956 10955 10956 10959 10961 10961 10960 10960 10961 10963 10963 10964 10964 10964 10965 10965 10964 10964 10965 10966 10966 10966 10966 10968 10970 10971 10973 10973 10972 10971 10972 10972 10973 10973 10973 10973 10972 10972 10972 10973 10973 10972 10972 10971 10970 10969 10969 10970 10970 10969 10968 10967 10966 10966 10966
10896 10898 10901 10903 10905 10907 10910 10911 10911 10912 10913 10917 10922 10924 10925 10927 10927 10927 10931 10934 10936 10939 10940 10939 10939 10939 10940 10942 10944 10946 10948 10948 10947 10949 10951 10953 10954 10953 10954 10956 10956 10957 10957 10958 10958 10959 10958 10958 10958 10959 10959 10960 10960 10960 10961 10962 10964 10965 10965 10964 10964 10965 10965 10966 10966 10965 10965 10965 10965 10965 10965 10965 10965 10964 10963 10963 10963 10963 10963 10963 10962 10961 10960 10959 10959
10886 10888 10891 10894 10896 10899 10901 10902 10903 10904 10905 10908 10911 10913 10915 10918 10918 10919 10923 10926 10928 10930 10931 10931 10931 10931 10932 10934 10935 10938 10941 10941 10940 10939 10941 10945 10947 10946 10948 10949 10948 10948 10950 10951 10952 10952 10952 10952 10952 10952 10952 10952 10953 10953 10953 10954 10955 10956 10956 10955 10955 10956 10958 10959 10958 10957 10957 10957 10957 10957 10957 10958 10958 10957 10957 10956 10955 10955 10955 10955 10955 10955 10953 10953 10952
10877 10880 10883 10886 10888 10890 10891 10892 10894 10897 10899 10900 10901 10903 10906 10908 10909 10910 10913 10915 10917 10919 10920 10922 10922 10923 10924 10924 10926 10929 10932 10933 10932 10932 10933 10936 10938 10938 10940 10941 10941 10940 10941 10943 10944 10945 10945 10946 10946 10945 10944 10944 10944 10944 10945 10946 10947 10947 10947 10946 10944 10945 10949 10951 10950 10948 10948 10949 10949 10948 10949 10949 10949 10949 10949 10948 10948 10948 10947 10947 10947 10947 10946 10945 10945
10868 10871 10874 10876 10879 10881 10881 10882 10885 10887 10889 10890 10891 10893 10896 10899 10900 10902 10903 10904 10906 10908 10910 10911 10911 10911 10912 10913 10915 10919 10921 10922 10924 10925 10925 10927 10928 10928 10930 10931 10932 10932 10932 10933 10934 10935 10936 10937 10938 10937 10936 10936 10935 10935 10935 10936 10938 10938 10939 10937 10934 10936 10939 10940 10939 10939 10940 10940 10939 10939 10939 10940 10940 10940 10939 10939 10939 10939 10939 10939 10939 10938 10938 10937 10936
10855 10858 10861 10865 10869 10872 10872 10872 10872 10873 10875 10877 10881 10884 10887 10889 10891 10893 10894 10895 10895 10896 10900 10901 10896 10895 10898 10900 10903 10908 10910 10912 10914 10916 10917 10918 10918 10919 10920 10921 10922 10922 10923 10923 10924 10924 10925 10926 10928 10928 10927 10927 10926 10925 10924 10925 10927 10928 10928 10927 10925 10926 10929 10930 10929 10929 10930 10930 10929 10928 10929 10930 10930 10930 10929 10930 10930 10930 10930 10930 10930 10929 10929 10928 10928
10841 10845 10849 10854 10859 10862 10861 10859 10858 10860 10862 10865 10869 10873 10876 10878 10880 10883 10885 10885 10881 10880 10887 10890 10884 10880 10884 10888 10892 10897 10900 10902 10904 10905 10907 10908 10908 10909 10910 10910 10911 10912 10913 10913 10914 10913 10913 10914 10915 10916 10916 10917 10918 10916 10914 10915 10916 10916 10916 10916 10915 10916 10918 10919 10918 10919 10919 10919 10918 10918 10918 10919 10919 10918 10919 10919 10920 10919 10919 10920 10920 10919 10919 10919 10918
10828 10832 10837 10842 10847 10850 10849 10846 10846 10849 10853 10855 10858 10861 10863 10865 10868 10870 10872 10872 10869 10866 10870 10876 10874 10871 10873 10876 10879 10884 10888 10891 10892 10893 10895 10896 10897 10898 10899 10900 10901 10902 10902 10903 10903 10903 10903 10904 10905 10905 10904 10905 10907 10906 10904 10905 10906 10905 10905 10904 10904 10905 10907 10907 10907 10908 10908 10907 10907 10907 10907 10907 10907 10907 10907 10908 10908 10908 10908 10909 10909 10908 10908 10908 10907
10816 10819 10825 10830 10834 10836 10835 10834 10835 10838 10843 10846 10848 10850 10852 10853 10856 10857 10857 10857 10857 10856 10856 10859 10860 10861 10863 10865 10867 10871 10875 10878 10879 10881 10883 10885 10886 10887 10888 10889 10890 10890 10891 10892 10892 10892 10892 10894 10896 10896 10894 10893 10894 10893 10892 10893 10894 10894 10894 10893 10892 10893 10894 10894 10895 10896 10896 10896 10895 10895 10895 10895 10895 10895 10895 10895 10895 10896 10896 10897 10897 10897 10896 10896 10894
10804 10808 10813 10817 10821 10822 10822 10823 10823 10826 10830 10834 10836 10838 10840 10841 10842 10843 10843 10844 10846 10846 10847 10847 10848 10849 10851 10854 10856 10859 10862 10864 10866 10868 10870 10873 10874 10876 10877 10878 10879 10879 10879 10880 10881 10881 10881 10882 10883 10885 10884 10883 10883 10883 10882 10881 10880 10880 10881 10881 10881 10882 10881 10880 10881 10882 10883 10883 10883 10882 10882 10882 10882 10882 10882 10882 10882 10883 10884 10884 10884 10884 10883 10881 10880
10792 10795 10800 10804 10808 10810 10811 10811 10813 10814 10816 10818 10821 10824 10827 10828 10829 10830 10831 10833 10834 10836 10837 10838 10838 10838 10839 10841 10843 10846 10849 10852 10854 10855 10858 10860 10862 10864 10865 10866 10867 10868 10868 10869 10869 10869 10869 10869 10870 10871 10872 10872 10872 10873 10873 10872 10871 10870 10869 10870 10871 10871 10869 10868 10868 10868 10868 10869 10869 10869 10869 10869 10869 10868 10868 10869 10870 10871 10871 10871 10870 10869 10868 10867 10866
10778 10782 10786 10790 10794 10797 10799 10800 10801 10802 10801 10803 10807 10810 10813 10815 10817 10818 10820 10822 10824 10825 10826 10827 10828 10828 10828 10829 10830 10833 10836 10839 10841 10843 10846 10849 10850 10851 10853 10854 10855 10856 10856 10856 10857 10857 10857 10857 10857 10858 10858 10859 10860 10861 10861 10861 10861 10861 10860 10861 10862 10861 10859 10858 10856 10854 10854 10855 10856 10856 10856 10856 10855 10854 10854 10855 10856 10857 10856 10856 10855 10854 10853 10853 10852
10763 10768 10772 10776 10780 10784 10786 10787 10788 10788 10788 10791 10794 10796 10797 10800 10803 10805 10808 10810 10811 10812 10814 10815 10816 10817 10817 10817 10818 10820 10823 10826 10829 10831 10834 10836 10838 10839 10840 10841 10842 10843 10843 10843 10844 10845 10845 10844 10844 10844 10845 10846 10847 10848 10848 10847 10848 10848 10849 10850 10851 10851 10849 10847 10845 10842 10841 10842 10844 10844 10844 10843 10842 10841 10840 10840 10840 10840 10840 10840 10840 10840 10840 10839 10838
10748 10752 10757 10762 10765 10768 10771 10774 10775 10775 10776 10777 10779 10780 10782 10786 10789 10792 10794 10795 10796 10798 10800 10803 10804 10804 10803 10803 10805 10808 10811 10814 10817 10819 10821 10824 10825 10826 10827 10829 10830 10830 10829 10830 10832 10833 10832 10831 10831 10831 10833 10834 10834 10834 10834 10834 10834 10834 10835 10837 10837 10837 10836 10834 10832 10830 10829 10831 10832 10833 10832 10830 10830 10829 10827 10825 10824 10823 10823 10824 10825 10825 10825 10824 10823
10733 10737 10741 10746 10749 10752 10755 10758 10761 10761 10761 10762 10765 10767 10769 10772 10775 10778 10780 10781 10782 10784 10787 10790 10792 10790 10788 10790 10794 10798 10800 10802 10804 10806 10809 10811 10811 10812 10813 10815 10817 10816 10815 10816 10818 10819 10818 10817 10818 10819 10820 10820 10820 10820 10820 10820 10821 10821 10822 10822 10822 10821 10819 10818 10817 10816 10816 10817 10818 10819 10819 10818 10817 10815 10813 10811 10809 10808 10809 10809 10810 10810 10809 10808 10807
10719 10722 10725 10728 10732 10735 10738 10742 10745 10747 10747 10748 10750 10754 10757 10759 10761 10764 10766 10768 10770 10773 10775 10777 10778 10776 10774 10777 10782 10786 10788 10789 10791 10793 10795 10796 10797 10797 10799 10802 10803 10803 10801 10800 10801 10802 10804 10805 10807 10807 10806 10805 10805 10805 10806 10807 10807 10807 10806 10806 10805 10804 10803 10802 10802 10802 10802 10801 10802 10802 10802 10802 10801 10799 10797 10796 10795 10794 10794 10793 10792 10792 10792 10792 10791
10705 10708 10710 10711 10713 10717 10721 10725 10729 10731 10733 10734 10736 10740 10742 10744 10747 10750 10751 10753 10758 10761 10762 10762 10763 10761 10761 10765 10771 10773 10774 10775 10777 10779 10781 10781 10782 10784 10786 10788 10788 10787 10785 10784 10785 10788 10791 10793 10793 10793 10791 10790 10790 10791 10791 10792 10791 10791 10790 10790 10789 10787 10786 10785 10786 10787 10787 10786 10785 10784 10784 10784 10784 10782 10781 10780 10779 10778 10776 10775 10774 10774 10774 10775 10774
10689 10693 10695 10696 10697 10700 10703 10707 10711 10715 10719 10721 10722 10725 10727 10729 10732 10735 10736 10738 10743 10748 10749 10749 10748 10747 10748 10753 10758 10759 10760 10762 10765 10766 10767 10767 10768 10771 10773 10773 10771 10770 10770 10771 10773 10776 10777 10777 10777 10777 10776 10776 10776 10776 10776 10776 10775 10775 10775 10774 10773 10771 10770 10769 10770 10770 10770 10770 10768 10766 10766 10765 10765 10765 10764 10763 10762 10760 10758 10757 10756 10755 10755 10755 10754
10672 10676 10679 10681 10683 10685 10686 10689 10692 10696 10701 10705 10708 10711 10714 10715 10717 10719 10720 10722 10727 10733 10735 10735 10734 10734 10736 10740 10743 10745 10745 10748 10751 10752 10752 10753 10755 10757 10758 10757 10755 10756 10758 10759 10760 10761 10762 10762 10762 10761 10761 10762 10762 10762 10761 10760 10759 10759 10759 10758 10756 10755 10754 10754 10754 10753 10753 10752 10750 10749 10748 10747 10747 10746 10746 10745 10743 10742 10740 10738 10737 10736 10735 10734 10733
10653 10657 10661 10664 10667 10669 10671 10672 10674 10677 10682 10687 10691 10695 10698 10700 10701 10703 10705 10708 10712 10717 10719 10719 10719 10721 10724 10726 10728 10730 10733 10735 10737 10737 10737 10739 10741 10742 10742 10741 10741 10743 10745 10746 10745 10746 10747 10748 10747 10746 10745 10745 10746 10746 10746 10745 10743 10743 10742 10741 10740 10739 10739 10738 10738 10736 10734 10733 10732 10731 10731 10730 10728 10727 10727 10725 10724 10723 10721 10719 10717 10715 10714 10713 10711
10634 10638 10642 10647 10651 10654 10656 10658 10658 10660 10664 10669 10674 10677 10679 10681 10684 10686 10689 10693 10698 10701 10702 10702 10704 10707 10709 10711 10714 10717 10720 10721 10722 10722 10724 10725 10727 10728 10727 10726 10727 10729 10731 10731 10731 10731 10732 10732 10731 10730 10729 10729 10729 10730 10730 10729 10727 10725 10724 10724 10723 10723 10723 10722 10721 10719 10717 10716 10714 10712 10711 10710 10709 10708 10707 10706 10705 10703 10701 10700 10698 10696 10693 10692 10690
10617 10622 10625 10629 10635 10639 10643 10644 10644 10645 10648 10652 10655 10658 10661 10663 10666 10669 10673 10678 10682 10685 10687 10688 10689 10690 10693 10697 10700 10702 10704 10706 10708 10709 10711 10713 10714 10712 10711 10710 10712 10715 10717 10717 10717 10717 10717 10717 10716 10715 10714 10713 10713 10713 10713 10712 10710 10708 10706 10706 10706 10706 10706 10704 10702 10701 10700 10699 10697 10694 10692 10691 10690 10689 10688 10687 10685 10684 10682 10679 10677 10675 10673 10671 10668
10600 10606 10609 10612 10617 10622 10626 10629 10631 10633 10636 10638 10639 10640 10643 10646 10650 10653 10656 10660 10663 10667 10671 10674 10674 10675 10679 10683 10684 10684 10687 10690 10693 10696 10698 10699 10699 10697 10695 10696 10699 10701 10702 10702 10702 10702 10702 10702 10701 10700 10699 10698 10697 10697 10697 10696 10694 10691 10688 10688 10689 10688 10687 10686 10684 10683 10682 10680 10679 10677 10675 10673 10671 10669 10668 10666 10665 10663 10661 10658 10656 10654 10652 10649 10647
10582 10588 10592 10595 10599 10603 10607 10612 10617 10622 10626 10627 10626 10626 10628 10630 10633 10637 10639 10641 10643 10648 10654 10658 10659 10660 10663 10666 10666 10668 10671 10675 10677 10679 10682 10683 10683 10682 10682 10683 10684 10684 10685 10687 10688 10688 10687 10686 10685 10685 10683 10682 10681 10680 10680 10679 10677 10674 10672 10672 10671 10670 10669 10668 10667 10665 10663 10661 10660 10658 10656 10654 10651 10649 10647 10645 10643 10641 10639 10637 10634 10632 10629 10627 10624
10564 10570 10574 10578 10582 10585 10589 10595 10603 10609 10613 10614 10615 10616 10618 10619 10621 10622 10622 10624 10626 10631 10636 10640 10642 10643 10646 10648 10650 10653 10657 10659 10661 10663 10665 10667 10668 10669 10670 10669 10668 10668 10669 10671 10671 10671 10670 10670 10669 10668 10666 10665 10664 10664 10663 10662 10660 10658 10657 10655 10654 10653 10652 10650 10648 10646 10644 10643 10641 10639 10637 10634 10632 10629 10627 10624 10622 10620 10617 10615 10612 10610 10607 10603 10601
10545 10552 10557 10561 10565 10569 10573 10579 10585 10591 10596 10599 10602 10606 10608 10609 10610 10610 10609 10610 10613 10617 10619 10622 10623 10625 10627 10630 10634 10637 10640 10642 10645 10647 10648 10650 10652 10654 10654 10653 10652 10652 10653 10654 10654 10653 10653 10653 10652 10650 10649 10648 10648 10647 10646 10644 10643 10641 10640 10638 10636 10635 10633 10631 10629 10627 10626 10624 10622 10619 10617 10614 10612 10609 10607 10604 10601 10599 10596 10593 10590 10587 10584 10581 10578
10526 10532 10539 10544 10549 10553 10557 10561 10566 10572 10578 10584 10588 10591 10594 10596 10599 10601 10600 10600 10602 10605 10606 10606 10606 10608 10610 10614 10617 10619 10621 10624 10627 10630 10632 10634 10635 10635 10635 10635 10635 10635 10636 10636 10636 10636 10636 10635 10635 10634 10632 10631 10631 10630 10628 10626 10625 10623 10622 10620 10618 10616 10614 10612 10610 10608 10606 10605 10603 10600 10597 10595 10592 10589 10587 10584 10581 10578 10575 10571 10568 10565 10562 10559 10556
10509 10515 10521 10528 10533 10538 10542 10545 10549 10555 10561 10567 10571 10575 10579 10582 10586 10590 10591 10592 10593 10595 10594 10593 10592 10594 10596 10599 10600 10602 10604 10607 10610 10613 10615 10617 10617 10617 10617 10618 10618 10618 10618 10618 10618 10618 10618 10618 10618 10617 10616 10615 10615 10614 10612 10609 10607 10606 10604 10602 10600 10598 10595 10593 10591 10589 10588 10586 10584 10581 10578 10575 10573 10570 10567 10564 10561 10557 10554 10551 10548 10544 10541 10538 10534